User: anonymous   Login
Location: Acton
(51.4942°N, 0.2232°W)
Time: 00:53:31
(UTC+00:00)
Language:

DMSP B5D2-2 - Orbit

View from above orbital plane
View from above orbital plane
View from above satellite
View from above satellite

Ground track
Ground track

The orbit data is extracted from the following two-line orbital elements,

1 14506U 83113A   20328.55560073 +.00000045 +00000-0 +34661-4 0  9991
2 14506 098.3133 173.5366 0012278 111.3729 301.5407 14.28120106925382
Epoch (UTC): 23 November 2020 13:20:03
Eccentricity: 0.0012278
inclination: 98.3133°
perigee height: 789 km
apogee height: 807 km
right ascension of ascending node: 173.5366°
argument of perigee: 111.3729°
revolutions per day: 14.28120106
mean anomaly at epoch: 301.5407°
orbit number at epoch: 92538

The dashed part of the orbit path shows where the satellite is in the earth's shadow,  

DLR